Retour au catalogue

CZ-4 DEB

ActifPO
NORAD 26140·DEBRIS·🇨🇳 China

Lancé Oct 14, 1999 depuis Taiyuan Satellite Launch Center

Loading…

Prochains Passages (prochaines 24 heures)

TLE

FraisSource: Space-Track

Époque: Sep 14, 2026, 19:27 UTC

1 26140U 99057AC  26257.81052106  .00008520  00000-0  13527-2 0  9993
2 26140  99.3458 208.8034 0130680  11.3932  10.5712 14.66822521387163

Suivez CZ-4 DEB en temps réel avec AllMySat

Download on the App Store